Domov               UVHVVR             MKGP            O straneh              
ZDRAVSTVENO VARSTVO RASTLIN
  MREŽA AGROMET. POSTAJ
 ► PROGNOSTIČNA OBVESTILA
AGROMETEOROLOŠKI PODATKI -
ARSO
OBVLADOVANJE TVEGANJ ZARADI
NEUGODNIH VREMENSKIH RAZMER
  ► NARAVNE NESREČE
  ► SUŠA/MOČA
  ► NAMAKANJE
  ► ŽLED (gozdarstvo)
KARTOGRAFSKI PRIKAZI
SPLETNE POVEZAVE
PROJEKTI IN PUBLIKACIJE

AGROMETEOROLOŠKA MREŽA: VREMENSKE POSTAJE IN FENOLOŠKA OPAZOVANJA

Pregled podatkov za lokacijo Pesnica, meteorološka postaja 25158

Pregled senzorjev na lokaciji

ID Ime Zadnja
vrednost
Datum
zadnje
spremembe
Tip
senzorja
913 Omočenost lista (U) 7 U 19.8.2017 20:00 A730WET
914 Temperatura 2 m ( °C) 17,02 °C 19.8.2017 20:00 Generic -40 - +60 °C
915 Relativna vlaga 2 m (% RH) 82,12 % RH 19.8.2017 20:00 Generic 0 - 100 %
916 Padavine 0.2 mm (mm) 0 mm 19.8.2017 20:00 Generic 0.2 mm
3981 Hitrost vetra (km/h) 0,83 km/h 19.8.2017 20:00 Generic 200 km/h

Pregled podatkov zadnjih 24 ur

Zap.
št.
Datum in čas Pesnica
Hitrost
vetra
Omočenost
lista
Padavine
0.2
mm
Relativna
vlaga
2
m
Temperatura
2
m
0 19.8.2017 19:00 0,83 7 0 82,12 17,02
1 19.8.2017 18:30 2,1 10 0 79,66 17,39
2 19.8.2017 18:00 1,32 10 0 82,27 18,02
3 19.8.2017 17:30 0,1 10 0 79,49 18,32
4 19.8.2017 17:00 1,9 10 0 83,93 18,53
5 19.8.2017 16:30 0,88 10 0,2 84,54 18,95
6 19.8.2017 16:00 2 1 0 80,54 19,24
7 19.8.2017 15:30 1,22 10 0 80,44 19,71
8 19.8.2017 15:00 0,44 10 0 81,22 19,8
9 19.8.2017 14:30 1,95 10 0,8 83,74 20,2
10 19.8.2017 14:00 0,2 3 0 70,16 21,56
11 19.8.2017 13:30 0,39 2 0 66,5 22,32
12 19.8.2017 13:00 1,71 0 0 60,44 23,42
13 19.8.2017 12:30 0,29 0 0 56,61 23,49
14 19.8.2017 12:00 2,49 0 0 58,75 23,35
15 19.8.2017 11:30 4 0 0 58,68 23,44
16 19.8.2017 11:00 4,44 0 0 61,22 22,83
17 19.8.2017 10:30 3,22 0 0 61,42 22,54
18 19.8.2017 10:00 2,54 0 0 61,73 22,74
19 19.8.2017 09:30 0,83 0 0 58,66 22,86
20 19.8.2017 09:00 0,63 0 0 55,92 23,86
21 19.8.2017 08:30 1,03 0 0 57,05 23,52
22 19.8.2017 08:00 0,2 0 0 56,73 23,25
23 19.8.2017 07:30 0 0 0 70,74 20,83
24 19.8.2017 07:00 0 0 0 73,77 20,24
25 19.8.2017 06:30 0 0 0 75,38 19,15
26 19.8.2017 06:00 0 0 0 73,97 19,27
27 19.8.2017 05:30 0,29 0 0 74,99 19,49
28 19.8.2017 05:00 0,15 0 0 74,95 19,02
29 19.8.2017 04:30 0,05 0 0 74,46 18,78
30 19.8.2017 04:00 0 0 0 81,42 18,36
31 19.8.2017 03:30 0,24 0 0 74,9 19,58
32 19.8.2017 03:00 1,27 0 0 72,84 19,27
33 19.8.2017 02:30 1,22 0 0 76,87 18,63
34 19.8.2017 02:00 0 0 0 74,04 18,83
35 19.8.2017 01:30 0 0 0 72,67 19
36 19.8.2017 01:00 0,15 0 0 69,26 20,07
37 19.8.2017 00:30 0,1 0 0 69,96 20,66
38 19.8.2017 00:00 0,1 0 0 65,81 21,34
39 18.8.2017 23:30 0,88 0 0 59,51 23,03
40 18.8.2017 23:00 0,15 0 0 63,98 23,54
41 18.8.2017 22:30 0,34 0 0 50,65 23,39
42 18.8.2017 22:00 0,98 0 0 52,82 23,93
43 18.8.2017 21:30 0,59 0 0 58,68 24,08
44 18.8.2017 21:00 0 0 53,14 24,79
45 18.8.2017 20:30 0,44 0 0 49,33 25,3
© 2011 Ministrstvo za kmetijstvo, gozdarstvo in prehrano. Vse pravice pridržane.